Flag for Japan Weather past 2 weeks in Sagamihara, Japan

Now
67 °F

Passing clouds.


Feels Like: 67 °F
Forecast: 59 / 72 °F
Wind: 6 mph from South

Location: Yokota Ab

Current Time: May 23, 2015 at 9:46:02 PM

Latest Report: May 23, 2015 at 8:58 PM


Visibility: 10 mi

Pressure: 29.89 "Hg

Humidity: 69%

Dew point: 56 °F

Location of SagamiharaLocation

Historic Weather in Sagamihara — Graph

°F

Sagamihara temperature yesterday

Maximum temperature yesterday: 77 °F (at 1:58 PM)
Minimum temperature yesterday: 57 °F (at 4:58 AM)
Average temperature yesterday: 67 °F

Past Weeks' High & Low Weather Summary

 TemperatureHumidityPressure
High84 °F (May 14, 2:58 PM)100% (May 10, 3:00 AM)30.28 "Hg (May 10, 3:00 AM)
Low46 °F (May 11, 3:58 AM)20% (May 17, 12:58 PM)29.47 "Hg (May 13, 1:02 AM)
Average68 °F67%29.84 "Hg
* Reported May 8 8:58 PM — May 23 8:58 PM, Sagamihara, Weather by CustomWeather, © 2015

Note: Actual official high and low records may vary slightly from our data, if they occured in-between our weather recording intervals... More about our weather records

Advertising

Sagamihara weather history for previous 24 hours

 ConditionsComfort  
Time TempWeatherWind HumidityBarometerVisibility
8:58 PM
Sat, May 23
67 °FPassing clouds.6 mph69%29.89 "Hg10 mi
7:58 PM69 °FClear.8 mph62%29.88 "Hg10 mi
6:58 PM70 °FClear.8 mph61%29.88 "Hg10 mi
5:58 PM72 °FSunny.10 mph60%29.88 "Hg10 mi
4:58 PM73 °FSunny.13 mph54%29.88 "Hg10 mi
3:58 PM75 °FSunny.14 mph49%29.88 "Hg10 mi
2:58 PM78 °FSunny.14 mph46%29.89 "Hg10 mi
1:58 PM80 °FSunny.14 mph43%29.90 "Hg10 mi
12:58 PM81 °FPassing clouds.12 mph41%29.90 "Hg10 mi
11:58 AM80 °FPassing clouds.9 mph41%29.93 "Hg10 mi
10:58 AM78 °FPassing clouds.6 mph44%29.96 "Hg10 mi
9:58 AM76 °FPassing clouds.7 mph46%29.96 "Hg10 mi
8:58 AM73 °FSunny.5 mph53%29.98 "Hg10 mi
7:58 AM70 °FSunny.2 mph58%29.99 "Hg10 mi
6:58 AM67 °FSunny.2 mph60%29.99 "Hg10 mi
5:58 AM61 °FSunny.2 mph69%29.99 "Hg10 mi
4:58 AM59 °FSunny.1 mph73%29.98 "Hg10 mi
3:58 AM58 °FClear.2 mph78%29.98 "Hg10 mi
2:58 AM60 °FClear.No wind75%29.96 "Hg10 mi
1:58 AM61 °FClear.No wind76%29.96 "Hg10 mi
12:58 AM62 °FClear.2 mph75%29.95 "Hg10 mi
11:58 PM
Fri, May 22
63 °FClear.6 mph75%29.95 "Hg10 mi
10:58 PM65 °FClear.2 mph75%29.95 "Hg6 mi
9:58 PM66 °FClear.1 mph74%29.95 "Hg10 mi
Weather by CustomWeather, © 2015

See weather overviewHow to use our weather pages